This demonstration page uses our WeatherBlox Daily Observations layout. Learn more.

Left ArrowRight Arrow

38.20091, -84.87328

Hourly Observations for July 22, 2018

Temp ( °F °C ) Dew Point ( °F °C ) Humidity (%) Winds ( mph kmh ) Pressure ( in mb ) Visibility ( mi km ) Precip ( " mm )
12:53 am 00:53 Cloudy 70 21.1 68 20 93 93 WSW 6 9 29.71 1006 10 16 0.00 0.00
1:53 am 01:53 Cloudy 71 21.7 68 20 90 90 NW 3 6 29.70 1006 10 16 0.00 0.00
2:00 am 02:00 Cloudy 71 21.7 68 20 90 90 VRB 3 6 29.68 1005 10 16 0.00 0.00
2:53 am 02:53 Cloudy 70 21.1 67 19.4 90 90 WSW 7 11 29.68 1005 10 16 0.00 0.00
3:53 am 03:53 Cloudy 70 21.1 66 18.9 87 87 VRB 6 9 29.67 1005 10 16 0.00 0.00
4:15 am 04:15 Cloudy 70 21.1 66 18.9 87 87 W 7 11 29.65 1004 10 16 0.00 0.00
4:23 am 04:23 Cloudy 70 21.1 66 18.9 87 87 W 7 11 29.65 1004 10 16 0.00 0.00
4:40 am 04:40 Cloudy 70 21.1 66 18.9 87 87 W 6 9 29.65 1004 10 16 0.00 0.00
4:53 am 04:53 Cloudy 70 21.1 66 18.9 87 87 W 6 9 29.67 1005 10 16 0.00 0.00
5:42 am 05:42 Cloudy 69 20.6 66 18.9 90 90 W 8 13 29.68 1005 10 16 0.00 0.00
5:53 am 05:53 Cloudy 69 20.6 65 18.3 87 87 WSW 7 11 29.67 1005 10 16 0.00 0.00
6:53 am 06:53 Cloudy 69 20.6 65 18.3 87 87 WSW 7 11 29.68 1005 10 16 0.00 0.00
7:53 am 07:53 Cloudy 69 20.6 65 18.3 87 87 WSW 6 9 29.69 1005 10 16 0.00 0.00
8:17 am 08:17 Cloudy 69 20.6 65 18.3 87 87 WSW 8 13 29.68 1005 10 16 0.00 0.00
8:53 am 08:53 Cloudy 69 20.6 66 18.9 90 90 W 7 11 29.69 1005 9 14 0.00 0.03
9:15 am 09:15 Cloudy with Mist and Fog 69 20.6 66 18.9 90 90 W 6 9 29.68 1005 4 6 0.00 0.00
9:28 am 09:28 Cloudy with Light Rain 69 20.6 66 18.9 90 90 W 7 11 29.68 1005 3 4 0.01 0.25
9:37 am 09:37 Cloudy with Light Rain 69 20.6 67 19.4 93 93 W 6 9 29.68 1005 2 2 0.02 0.51
9:47 am 09:47 Cloudy with Light Rain 70 21 66 19 88 88 WNW 7 11 29.68 1005 3 5 0.03 0.76
9:48 am 09:48 Cloudy with Light Rain 69 20.6 67 19.4 93 93 WNW 8 13 29.70 1006 3 5 0.03 0.76
10:00 am 10:00 Cloudy with Mist and Fog 69 20.6 67 19.4 93 93 W 6 9 29.68 1005 3 5 0.00 0.03
10:10 am 10:10 Cloudy with Light Rain 70 21.1 67 19.4 90 90 WNW 5 7 29.68 1005 4 6 0.00 0.03
10:37 am 10:37 Cloudy with Light Rain 71 21.7 68 20 90 90 WNW 6 9 29.68 1005 7 11 0.01 0.25
10:53 am 10:53 Cloudy 72 22.2 69 20.6 91 91 WNW 7 11 29.70 1006 10 16 0.01 0.25
11:53 am 11:53 Cloudy 73 22.8 69 20.6 87 87 WNW 6 9 29.71 1006 10 16 0.00 0.00
12:35 pm 12:35 Cloudy with Light Rain 71 21.7 68 20 90 90 NNE 9 15 29.71 1006 3 4 0.11 2.79
12:37 pm 12:37 Cloudy with Heavy Rain 71 21.7 68 20 90 90 NE 9 15 29.71 1006 2 2 0.15 3.81
12:41 pm 12:41 Cloudy with Heavy Rain 70 21.1 68 20 93 93 NE 9 15 29.71 1006 1 1 0.28 7.11
12:51 pm 12:51 Cloudy with Heavy Rain 70 21 68 20 94 94 NW 6 9 29.71 1006 1 1 0.47 11.94
12:53 pm 12:53 Cloudy with Heavy Rain 69 20.6 67 19.4 93 93 NW 5 7 29.72 1006 1 1 0.49 12.45
12:59 pm 12:59 Cloudy with Light Rain 70 21.1 68 20 93 93 W 3 6 29.71 1006 1 2 0.00 0.03
1:02 pm 13:02 Cloudy with Light Rain 71 21.7 69 20.6 94 94 Calm 29.71 1006 3 5 0.00 0.03
1:09 pm 13:09 Cloudy 72 22.2 69 20.6 91 91 Calm 29.71 1006 10 16 0.00 0.03
1:53 pm 13:53 Cloudy 73 22.8 69 20.6 87 87 Calm 29.70 1006 10 16 0.00 0.03
2:50 pm 14:50 Mostly Cloudy 77 25 70 21 79 79 VRB 3 6 29.68 1005 10 16 0.00 0.00
2:53 pm 14:53 Mostly Cloudy 76 24.4 70 21.1 82 82 Calm 29.69 1006 10 16 0.00 0.00
3:17 pm 15:17 Partly Cloudy 77 25 70 21.1 79 79 Calm 29.68 1005 10 16 0.00 0.00
3:53 pm 15:53 Cloudy with Light Rain 76 24.4 68 20 77 77 NNE 8 13 29.70 1006 10 16 0.01 0.25
4:53 pm 16:53 Mostly Cloudy 77 25 69 20.6 77 77 NE 6 9 29.69 1005 10 16 0.00 0.03
5:53 pm 17:53 Mostly Cloudy 78 25.6 68 20 71 71 ENE 3 6 29.70 1006 10 16 0.00 0.03
6:53 pm 18:53 Mostly Cloudy with Nearby Thunderstorms 77 25 68 20 74 74 N 8 13 29.71 1006 10 16 0.00 0.00
7:20 pm 19:20 Mostly Cloudy 75 23.9 66 18.9 74 74 N 5 7 29.71 1006 10 16 0.00 0.00
7:53 pm 19:53 Partly Cloudy 74 23.3 67 19.4 79 79 Calm 29.73 1007 10 16 0.00 0.00
8:53 pm 20:53 Mostly Sunny 71 21.7 68 20 90 90 NW 3 6 29.76 1008 10 16 0.00 0.00
9:53 pm 21:53 Clear 70 21.1 68 20 93 93 NW 3 6 29.77 1008 10 16 0.00 0.00
10:53 pm 22:53 Clear 69 20.6 67 19.4 93 93 Calm 29.78 1009 7 11 0.00 0.00
11:53 pm 23:53 Mostly Clear 69 20.6 67 19.4 93 93 NNW 5 7 29.79 1009 10 16 0.00 0.00

Powered by AerisWeather